This is the latest recevied weather packets stored in our database for station/object IZ8QAD-11. If no packets are shown the sender has not sent any weather packets the latest 10 day(s).
| Time | Temp. | Humidity | Pressure | Rain* | Wind** | Luminosity | Snow |
|---|---|---|---|---|---|---|---|
| 1778150664 | 31.11° C | 63% | 967 hPa | - | - | - | - |
| 1778147072 | 31.11° C | 72% | 967.1 hPa | - | - | - | - |
| 1778143471 | 25.56° C | 76% | 967.4 hPa | - | - | - | - |
| 1778139861 | 27.22° C | 78% | 967.3 hPa | - | - | - | - |
| 1778136261 | 20.56° C | 81% | 967.2 hPa | - | - | - | - |
| 1778125458 | 14.44° C | 79% | 966.4 hPa | - | - | - | - |
| 1778121858 | 14.44° C | 75% | 967.3 hPa | - | - | - | - |
| 1778118256 | 14.44° C | 71% | 967.3 hPa | - | - | - | - |
| 1778114656 | 14.44° C | 66% | 967.2 hPa | - | - | - | - |
| 1778111055 | 14.44° C | 59% | 967.5 hPa | - | - | - | - |
| 1778107454 | 15° C | 55% | 968.2 hPa | - | - | - | - |
| 1778103853 | 16.11° C | 53% | 968.2 hPa | - | - | - | - |
| 1778100253 | 16.67° C | 52% | 968.3 hPa | - | - | - | - |
| 1778096651 | 18.33° C | 51% | 968.9 hPa | - | - | - | - |
| 1778093060 | 18.89° C | 49% | 967.5 hPa | - | - | - | - |
| 1778089450 | 19.44° C | 48% | 967.1 hPa | - | - | - | - |
| 1778085849 | 21.67° C | 45% | 967 hPa | - | - | - | - |
| 1778078648 | 26.11° C | 39% | 966.6 hPa | - | - | - | - |
| 1778075047 | 30° C | 38% | 966.6 hPa | - | - | - | - |
| 1778071446 | 31.11° C | 38% | 966.8 hPa | - | - | - | - |
| 1778067845 | 32.78° C | 39% | 967 hPa | - | - | - | - |
| 1778064244 | 30.56° C | 44% | 966.9 hPa | - | - | - | - |
| 1778060655 | 27.22° C | 49% | 967.3 hPa | - | - | - | - |
| 1778057042 | 22.78° C | 52% | 967.4 hPa | - | - | - | - |
| 1778053442 | 22.22° C | 52% | 967.5 hPa | - | - | - | - |
* Rain since midnight (hover to see other rain measurements)
** Current wind speed in m/s (hover to see current wind gust speed)